{"data":{"norad_id":55493,"epoch":"2026-09-20T10:49:12.280512Z","epoch_age_seconds":104683,"freshness":"FRESH","line1":"1 55493U 23015AW  26263.45083658 -.00000205  00000+0  20564-5 0  9994","line2":"2 55493  43.0019 319.6354 0001133 270.3497  89.7225 15.27574852200388","mean_motion":15.27574852,"eccentricity":0.0001133,"inclination_deg":43.0019,"raan_deg":319.6354,"arg_perigee_deg":270.3497,"mean_anomaly_deg":89.7225,"bstar":2.0564e-6,"rev_number":20038,"period_min":94.267066397084,"perigee_km":482.28713691573,"apogee_km":483.84188517813,"semimajor_km":6861.2015110469,"source":"CELESTRAK","updated_at":"2026-09-21T09:00:33.259454Z"}}